Location: Pcim
(49.7500°N, 19.9670°E)
Time: 21:44:05
(UTC+02:00)

Max Valier Satellite - Visible Passes

Search period start: 22 April 2024 00:00
Search period end: 02 May 2024 00:00
Orbit: 359 x 365 km, 97.1° (Epoch: 22 April)

Date Brightness Start Highest point End Pass type
(mag) Time Alt. Az. Time Alt. Az. Time Alt. Az.
23 Apr ? 20:32:14 10° SSW 20:34:49 30° W 20:37:25 10° NNW visible
24 Apr ? 21:02:00 10° SW 21:03:31 13° W 21:05:04 10° WNW visible
26 Apr ? 20:25:46 10° S 20:28:27 37° W 20:31:10 10° NNW visible
27 Apr ? 20:54:09 10° SW 20:56:06 17° W 20:58:03 10° NW visible
30 Apr ? 20:43:13 10° SSW 20:45:34 22° W 20:47:56 10° NW visible
01 May ? 21:10:59 10° WSW 21:11:51 11° W 21:12:43 10° WNW visible
